Theta_e
346 346 345 346 347 348 348 349 350 349 349 350 346 347 346 346 348 351 349 349 350 351 358 359 360 360 361 360 359 360 360 361 361 361 360 358 359 359 359 357 356 355 353
346 345 345 346 347 346 346 347 348 349 348 347 346 345 344 347 349 350 351 350 351 351 358 357 361 361 361 360 361 360 360 359 358 359 358 360 360 358 357 356 355 353 352
347 346 346 346 348 343 345 348 349 350 348 347 345 346 348 349 351 351 351 350 350 352 359 357 362 363 360 361 360 360 359 359 357 358 361 359 357 356 354 353 352 350 350
345 345 344 346 343 343 348 346 345 346 345 345 343 346 346 346 347 349 350 350 350 350 356 361 363 363 361 360 360 359 359 357 358 359 358 357 355 354 353 353 351 351 350
345 343 341 342 342 345 343 342 343 346 342 342 341 342 342 342 342 342 346 350 350 353 356 358 361 362 361 359 360 359 359 358 358 357 356 354 353 352 352 351 350 351 350
346 343 340 340 342 343 346 340 347 343 343 342 338 337 340 341 340 342 344 349 351 353 356 356 360 360 361 361 359 359 358 357 356 356 354 352 352 350 349 349 350 349 351
345 343 339 340 341 343 346 346 347 343 341 340 340 340 340 337 337 339 344 349 352 354 354 355 359 360 361 362 361 359 357 356 355 355 354 353 351 349 347 349 349 349 349
341 342 341 339 339 345 350 347 350 347 341 342 340 337 331 332 333 339 343 344 344 349 354 354 357 357 360 362 361 360 359 357 356 355 354 354 350 348 346 347 347 347 346
341 340 338 337 339 349 347 349 350 346 340 342 342 338 331 329 328 335 339 342 342 343 346 350 353 356 357 359 360 361 361 358 357 356 356 355 351 346 345 346 345 345 344
343 341 338 336 343 350 348 347 349 344 339 340 339 336 336 333 328 333 340 341 342 341 341 345 347 350 356 357 356 359 359 357 358 358 356 354 349 345 344 344 343 343 345
343 341 344 339 343 350 350 349 349 343 344 340 339 336 335 335 337 337 333 337 341 343 345 342 346 345 350 356 356 354 358 358 356 358 357 353 348 344 343 342 342 342 342
342 342 345 345 343 349 350 350 351 350 350 346 342 337 336 342 341 338 335 335 336 342 343 346 347 347 349 352 354 355 356 356 354 354 355 353 349 345 342 340 340 339 335
343 343 344 346 347 349 351 351 350 350 351 348 346 341 343 343 345 342 339 337 339 343 344 346 347 347 347 353 356 357 356 352 350 349 349 348 348 347 343 339 338 335 334
345 347 346 348 348 350 351 352 348 348 351 349 350 349 347 347 346 345 344 340 336 335 341 345 348 348 349 355 356 355 355 347 347 345 344 344 343 343 342 339 335 334 332
346 347 348 348 350 350 350 352 350 348 349 348 348 350 350 351 352 350 347 344 341 337 337 342 346 350 349 354 354 358 357 347 345 344 341 340 340 340 339 339 335 332 330
346 348 347 348 350 351 351 351 350 350 349 349 349 349 350 351 350 350 348 344 342 341 336 344 350 351 350 351 354 355 353 346 344 342 340 337 338 338 337 336 334 330 328
346 346 347 347 348 349 352 350 350 350 348 349 349 349 349 348 349 346 347 345 344 343 339 342 345 353 352 351 356 356 353 351 349 340 339 337 335 335 335 333 331 330 328
347 346 348 349 348 348 351 351 349 348 348 348 348 346 348 348 348 347 347 347 348 347 345 341 342 348 350 351 352 352 351 350 348 342 339 336 334 332 331 330 329 328 326
346 345 347 347 348 349 349 350 350 347 349 349 349 347 347 345 343 346 348 347 348 348 344 342 342 347 349 350 351 349 348 346 346 340 336 334 333 331 330 328 326 323 321
345 346 346 346 347 348 348 349 348 348 347 348 349 348 348 346 345 347 347 347 347 346 347 345 344 344 347 350 349 347 345 345 343 342 339 336 333 331 330 326 324 321 317
343 345 345 345 345 344 343 342 344 347 347 347 347 348 348 348 344 345 349 348 346 345 344 343 342 343 344 344 345 347 345 344 339 336 332 329 330 329 328 325 324 321 318
342 343 343 344 343 344 337 335 339 340 342 345 345 348 349 346 345 339 337 340 346 347 345 343 343 341 344 344 346 346 344 339 337 334 329 324 326 324 323 322 322 319 316
340 339 342 342 342 343 332 333 337 341 342 343 345 347 348 348 344 350 340 335 336 335 340 347 344 344 343 345 345 343 341 341 339 331 329 322 320 319 321 320 321 319 317
340 338 338 339 341 342 332 329 333 341 342 344 346 347 348 348 349 348 349 347 347 345 341 341 343 345 345 343 343 344 342 338 330 328 328 323 318 314 317 318 319 317 314
337 337 336 336 336 338 327 325 330 339 341 342 344 347 347 347 337 329 345 346 345 337 325 326 326 325 324 325 332 340 338 336 335 327 324 318 314 312 315 315 317 314 312
336 337 336 336 331 334 324 321 326 337 337 339 340 340 329 336 325 323 337 345 342 338 328 326 325 323 324 324 325 333 336 336 335 324 320 315 312 313 308 313 313 312 313
Wind_Speed
2 2 1 1 1 0 1 3 3 3 2 1 2 2 2 4 4 3 2 3 3 3 5 7 8 8 7 5 3 1 2 4 5 5 3 2 2 5 6 6 6 4 3
2 2 2 2 1 2 2 2 2 3 2 1 2 4 4 3 4 3 3 3 4 4 5 6 8 8 7 4 3 1 1 3 3 2 2 3 6 6 5 4 3 3 2
2 3 2 2 1 1 3 2 1 0 2 0 2 3 2 1 1 3 3 3 3 6 7 6 6 6 7 4 2 1 1 2 3 2 6 8 6 4 3 2 3 2 1
2 2 3 2 0 2 1 3 3 2 3 1 0 1 2 3 4 5 1 3 4 3 5 6 5 6 6 3 2 1 2 4 5 6 7 5 3 3 4 3 2 3 3
2 2 2 2 0 1 2 2 2 2 2 3 2 3 3 5 5 4 4 4 5 4 2 5 6 6 6 3 3 3 2 3 5 6 5 4 3 4 6 8 6 5 4
3 3 1 3 1 1 2 2 3 4 2 2 3 3 2 3 4 3 4 2 3 4 4 4 2 3 2 3 3 2 3 3 4 5 4 4 3 4 5 6 5 5 7
4 3 1 3 1 2 1 1 1 3 3 1 2 1 2 3 4 3 3 2 1 3 3 3 3 2 2 5 5 2 3 4 4 4 5 5 4 4 4 4 5 6 8
5 4 3 3 3 3 3 2 1 1 2 1 2 1 1 2 2 3 1 2 2 2 4 4 3 3 3 3 4 6 5 4 4 5 4 4 3 2 3 4 3 4 4
5 4 3 4 3 3 2 2 2 3 3 1 1 2 2 2 2 2 3 2 1 2 3 3 4 5 5 5 5 6 7 6 6 7 5 4 3 3 4 4 3 3 3
5 4 4 5 4 3 3 3 3 2 3 2 1 3 3 2 3 2 2 3 4 5 4 3 4 5 6 4 7 7 8 8 6 4 4 4 3 3 3 3 3 3 5
3 4 5 5 4 3 2 3 2 3 2 2 2 2 1 1 2 2 2 2 2 4 4 4 4 4 5 5 6 7 9 9 8 5 4 4 3 2 2 2 3 3 4
3 5 5 4 4 3 3 2 2 3 2 2 2 2 2 2 2 2 2 2 3 3 3 3 5 5 5 5 7 10 10 9 9 7 5 4 4 4 3 2 1 1 2
3 7 6 5 3 4 4 3 3 3 3 3 3 2 1 1 1 2 2 1 2 2 2 3 4 5 5 4 6 9 10 8 8 7 6 6 5 5 4 3 2 1 2
5 5 6 6 7 6 5 4 3 3 4 4 4 4 2 3 3 2 2 2 1 2 1 3 2 3 4 4 5 7 6 7 7 6 6 7 6 6 4 2 1 2 3
5 5 6 6 7 6 7 6 4 4 4 3 4 4 3 3 4 4 3 2 2 2 2 2 2 2 3 3 4 6 6 5 8 8 7 7 6 6 4 2 2 3 4
7 5 6 7 6 7 7 7 5 4 4 3 3 4 4 3 4 3 3 3 3 2 2 2 2 2 1 3 4 6 6 7 8 8 8 6 6 5 3 3 3 3 3
6 7 7 8 8 8 7 7 6 5 6 4 4 5 6 4 3 3 3 3 4 3 3 3 2 1 2 3 3 4 3 4 3 6 6 6 6 5 5 4 4 4 4
6 7 6 7 7 8 7 8 9 8 8 7 7 6 6 4 6 5 3 5 4 4 4 4 2 2 3 2 2 4 4 4 4 4 7 7 6 6 5 4 4 5 4
9 6 6 7 7 7 7 8 9 8 8 8 7 7 8 5 5 4 5 4 4 3 4 3 3 1 2 1 1 2 1 3 2 3 6 7 7 6 5 5 5 6 6
8 9 9 9 8 7 7 8 6 7 7 7 7 7 7 7 7 6 5 6 4 4 3 4 4 3 3 2 2 2 2 2 2 2 3 4 7 7 6 6 7 8 8
8 8 9 9 9 7 7 7 6 6 7 7 7 7 8 9 10 9 5 6 6 5 4 5 4 2 3 3 4 1 3 1 2 2 2 2 3 3 4 7 7 10 10
6 6 8 9 10 8 11 13 10 7 7 8 8 8 8 9 10 12 12 12 9 6 6 4 4 5 6 4 3 3 3 2 2 2 2 2 2 3 3 3 8 11 12
7 8 7 8 9 9 9 11 13 7 8 9 10 9 7 7 9 9 10 10 9 11 8 4 6 6 4 5 3 2 3 3 3 3 3 3 2 3 2 4 10 11 11
9 9 8 6 5 5 7 8 10 8 8 9 10 10 10 9 9 9 8 8 8 6 5 4 7 4 5 3 4 3 3 3 2 2 2 3 2 2 3 3 11 12 14
3 3 3 4 5 6 9 11 8 5 8 11 10 9 9 9 9 9 9 9 7 5 3 4 3 8 7 3 3 4 4 3 2 2 1 3 2 3 2 3 5 14 14
3 3 4 4 7 7 7 8 8 5 6 7 6 5 8 8 7 9 10 9 8 7 8 7 7 6 4 5 5 1 1 4 2 2 2 3 3 3 3 1 5 5 5
Wind_Direction
122 127 134 116 235 317 260 264 273 291 298 354 222 245 207 163 186 190 192 204 198 245 292 278 281 279 276 268 255 264 317 328 326 322 327 353 41 60 64 68 69 72 71
156 152 171 117 40 336 303 275 263 267 290 103 201 247 250 229 208 210 220 212 214 240 267 280 283 276 265 259 258 272 350 353 347 323 255 195 107 90 85 83 76 59 39
197 151 175 141 236 321 297 4 55 340 333 97 232 261 299 69 208 208 223 244 224 245 252 246 256 274 270 244 224 225 108 121 125 135 102 83 87 95 98 118 130 95 330
246 178 164 175 201 325 359 54 21 12 26 89 110 21 27 55 19 34 121 211 224 236 247 237 247 261 249 205 249 218 196 119 108 96 93 101 83 34 347 357 5 6 2
248 240 150 153 107 336 49 76 54 50 40 87 108 84 31 43 21 8 13 245 238 223 211 234 238 253 257 176 188 166 108 107 105 109 100 93 81 53 37 41 32 9 356
209 240 221 152 107 290 59 71 85 46 58 107 95 72 61 26 5 12 1 312 233 234 217 205 225 248 246 145 152 169 159 156 149 142 146 134 108 79 58 53 41 22 42
203 214 250 152 138 214 112 85 102 86 55 46 112 52 21 13 338 352 19 1 242 274 271 232 202 245 236 174 164 183 204 188 186 185 176 150 132 112 86 68 61 37 35
194 216 205 204 183 238 113 144 161 116 97 7 139 115 49 343 328 325 326 89 59 313 278 251 252 214 230 227 199 192 207 219 217 234 210 158 134 104 110 116 82 68 64
189 210 227 217 218 229 145 140 178 154 145 20 64 145 121 192 328 315 311 329 257 223 252 258 247 241 234 226 217 206 198 210 231 256 227 183 174 166 152 135 106 97 67
195 186 223 211 199 205 169 167 172 142 134 181 42 43 36 138 142 330 304 292 257 257 256 254 236 235 227 228 234 224 201 204 234 244 186 209 194 168 151 112 94 72 64
201 210 219 211 210 224 204 182 154 155 182 155 182 166 151 62 110 133 263 312 292 263 245 250 262 256 233 215 229 235 214 206 209 234 222 214 209 194 170 135 105 82 48
196 228 216 213 226 244 236 242 225 190 210 215 197 194 178 170 178 146 231 273 260 292 257 241 249 244 244 222 233 230 221 210 206 208 222 225 225 220 222 207 191 122 70
195 210 202 210 213 221 232 224 200 205 210 220 208 215 239 246 167 154 157 225 296 305 315 248 247 246 241 234 241 223 223 211 209 202 200 215 230 240 231 228 229 101 64
218 198 207 199 201 212 218 212 210 211 201 224 240 223 242 236 205 200 194 155 320 293 299 263 232 234 226 223 235 209 222 211 207 204 201 204 223 230 217 196 146 100 74
217 214 189 206 216 203 205 205 202 205 194 207 235 241 216 229 235 221 202 178 176 285 300 312 302 250 238 227 227 217 217 191 205 203 206 207 216 232 221 169 127 92 64
224 211 202 200 214 216 208 200 210 213 201 207 221 235 242 233 238 237 213 186 215 180 262 222 276 289 243 224 236 212 213 205 213 203 206 198 211 229 210 170 136 109 99
199 217 212 210 211 219 208 198 216 213 211 215 213 227 242 221 220 211 208 202 206 184 225 287 259 291 272 236 226 230 229 223 236 216 201 195 198 200 201 184 160 138 113
209 214 213 215 220 221 210 203 217 210 210 209 221 215 236 216 236 238 225 227 221 199 203 246 287 291 254 254 249 247 241 232 228 225 217 200 194 189 185 179 154 134 120
213 214 214 216 219 221 226 220 217 211 210 213 216 210 231 202 237 233 224 228 233 219 194 225 256 256 267 253 248 211 242 230 200 192 204 185 182 174 160 151 144 129 110
217 214 210 219 220 220 225 225 205 218 225 222 217 222 232 218 220 224 223 222 224 233 211 227 250 259 251 254 258 264 279 211 214 180 128 149 143 143 144 141 145 134 122
203 231 225 217 211 201 216 214 209 218 221 230 223 224 234 232 223 216 199 218 201 217 222 230 232 225 235 220 230 202 240 228 212 171 133 123 123 126 136 147 162 148 133
194 193 223 227 223 218 204 200 195 204 221 235 244 240 232 227 233 235 215 220 194 199 219 203 223 234 241 211 206 219 218 212 258 157 132 121 130 162 160 163 153 142 136
188 195 212 230 239 238 208 204 205 206 212 228 234 236 241 240 229 234 228 224 221 216 219 201 228 226 253 212 169 191 211 218 217 156 141 142 161 151 145 141 145 145 139
210 196 210 198 212 221 220 220 220 238 245 236 230 226 228 240 231 224 228 225 226 210 205 213 232 239 231 179 212 188 166 128 97 133 164 145 137 109 132 146 154 146 134
183 194 190 207 227 248 221 230 229 227 238 245 238 228 223 237 242 226 236 234 210 173 77 221 131 107 107 104 209 166 186 178 201 153 116 110 137 118 120 132 146 148 144
176 176 203 222 243 248 230 202 196 206 232 243 236 224 211 229 254 230 222 223 217 198 159 140 127 116 109 77 54 278 189 210 187 178 166 116 143 157 125 73 144 150 161